OBJECT NA
1 42911U 98067NA 18018.85975886 .00011494 00000-0 14372-3 0 9990
2 42911 51.6380 39.0050 0006705 10.8655 349.2482 15.60314315 24021
OBJECT NB
1 42912U 98067NB 18018.56381451 +.00008971 +00000-0 +11505-3 0 9999
2 42912 051.6376 040.7437 0006177 021.7614 338.3640 15.59975976023998
OBJECT NC
1 42913U 98067NC 18018.54390071 +.00018688 +00000-0 +20713-3 0 9993
2 42913 051.6367 039.1221 0005344 028.9977 331.1313 15.62997678024017
OBJECT ND
1 42914U 98067ND 18018.57955637 +.00009596 +00000-0 +12399-3 0 9991
2 42914 051.6381 040.8800 0006068 016.4035 343.7153 15.59677559023960
QIKCOM-1
1 42983U 98067NF 18018.61567225 .00002726 00000-0 46699-4 0 9993
2 42983 51.6435 43.9479 0004473 13.9352 71.3142 15.55167809 12939
AO-91
1 43017U 17073E 18018.52470079 +.00000948 +00000-0 +79563-4 0 9990
2 43017 097.6976 316.0057 0261521 039.0252 322.9510 14.77845764009005
EcAMSat
1 43019U 98067NG 18018.47141522 +.00004146 +00000-0 +66667-4 0 9991
2 43019 051.6404 044.6683 0005151 343.1375 016.9444 15.55442760095234
PICSAT
1 43131U 18004W 18018.51595029 +.00001511 +00000-0 +68861-4 0 9990
2 43131 097.5551 080.6663 0008481 259.7977 100.2303 15.22215149000946
AO-92
1 43137U 18004AC 18018.84393893 .00000927 00000-0 43283-4 0 9998
2 43137 97.5551 80.9975 0008054 261.3540 98.6783 15.22370368 983
/EX
1
0
Just a reminder. Although we have identified the TLE set for AO-92, AO-92 is
still in the commissioning process so DO NOT TRANSMIT to AO-92 at this time.
You may hear stations on AO-92, but this is part of the commissioning
process.
Ray Hoad
WA5QGD
Orbital Elements Manager
1
0
Nico Janssen, PA0DLO, by detailed doppler measurements has confirmed the
identity of the AO-92 and PICSAT from the 1-12-2018 0358 GMT India PSLV-C40
launch. They have been added to the AMSAT-NA TLE Distribution:
PICSAT - NORAD CAT ID 43131
AO-92 - NORAD CAT ID 43137
The following objects have been dropped from the AMSAT-NA TLE Distribution:
OBJECT A - NORAD CAT ID 43111
OBJECT B - NORAD CAT ID 43112
OBJECT C - NORAD CAT ID 43113
OBJECT D - NORAD CAT ID 43114
OBJECT E - NORAD CAT ID 43115
OBJECT F - NORAD CAT ID 43116
OBJECT T - NORAD CAT ID 43128
OBJECT U - NORAD CAT ID 43129
99934 - NORAD CAT ID 99934
Please modify your tracking program as required.
1
0
SB KEPS @ AMSAT $ORB18016.N
2Line Orbital Elements 18016.AMSAT
HR AMSAT ORBITAL ELEMENTS FOR AMATEUR SATELLITES IN NASA FORMAT
FROM WA5QGD FORT WORTH,TX January 16, 2018
BID: ORB18016.N
DECODE 2-LINE ELSETS WITH THE FOLLOWING KEY:
1 AAAAAU 00 0 0 BBBBB.BBBBBBBB .CCCCCCCC 00000-0 00000-0 0 DDDZ
2 AAAAA EEE.EEEE FFF.FFFF GGGGGGG HHH.HHHH III.IIII JJ.JJJJJJJJKKKKKZ
KEY: A-CATALOGNUM B-EPOCHTIME C-DECAY D-ELSETNUM E-INCLINATION F-RAAN
G-ECCENTRICITY H-ARGPERIGEE I-MNANOM J-MNMOTION K-ORBITNUM Z-CHECKSUM
TO ALL RADIO AMATEURS BT
AO-07
1 07530U 74089B 18015.90266883 -.00000049 00000-0 -28759-4 0 9990
2 07530 101.6649 345.6455 0011824 270.7317 112.1617 12.53630685975514
UO-11
1 14781U 84021B 18016.11928154 .00000064 00000-0 14157-4 0 9995
2 14781 97.6701 58.6502 0007655 213.5386 146.5344 14.82973688821903
LO-19
1 20442U 90005G 18016.40443940 -.00000007 00000-0 13501-4 0 9992
2 20442 98.5970 315.9467 0010783 235.5503 124.4663 14.32884316462153
HUBBLE
1 20580U 90037B 18016.19446696 .00000480 00000-0 18484-4 0 9996
2 20580 28.4708 39.8065 0002470 308.8812 116.3776 15.08963414322481
MET-2/21
1 22782U 93055A 18015.96996028 .00000038 00000-0 21093-4 0 9997
2 22782 082.5472 214.7185 0022023 191.1550 276.8240 13.83805993230856
AO-27
1 22825U 93061C 18016.17929701 -.00000005 00000-0 16005-4 0 9992
2 22825 98.8430 349.7050 0009455 72.1033 288.1179 14.30019376267847
IO-26
1 22826U 93061D 18016.51107790 -.00000016 00000-0 11514-4 0 9999
2 22826 98.8371 350.0985 0009889 62.0367 298.1814 14.30349998268072
FO-29
1 24278U 96046B 18015.83003827 -.00000010 00000-0 23578-4 0 9995
2 24278 98.5311 235.4527 0350959 146.0387 216.3767 13.53080417 57635
NOAA-15
1 25338U 98030A 18015.84472334 .00000021 00000-0 27856-4 0 9996
2 25338 098.7766 032.1172 0009792 313.5332 046.5033 14.25835266023052
GO-32
1 25397U 98043D 18016.08149511 -.00000027 00000-0 73794-5 0 9990
2 25397 98.6349 319.1656 0002369 95.2478 264.8971 14.23637930 14081
ISS
1 25544U 98067A 18015.76213144 .00002375 00000-0 42846-4 0 9998
2 25544 051.6430 058.5835 0003578 019.8447 092.3735 15.54313934094810
NO-44
1 26931U 01043C 18016.42633727 -.00000016 00000-0 25746-4 0 9995
2 26931 67.0507 260.9972 0005289 277.2355 82.8145 14.30490879850846
SO-50
1 27607U 02058C 18015.91003091 -.00000021 00000-0 17550-4 0 9991
2 27607 064.5538 195.4716 0046691 006.5024 353.6674 14.75412065810368
CO-55
1 27844U 03031E 18015.77369022 .00000060 00000-0 46746-4 0 9990
2 27844 98.6884 26.6682 0010833 92.6787 267.5631 14.22088832754536
CO-57
1 27848U 03031J 18015.69076628 .00000041 00000-0 38533-4 0 9996
2 27848 98.6974 26.9307 0010727 101.9372 258.3008 14.21696274754397
RS-22
1 27939U 03042A 18016.51957273 .00000074 00000-0 21808-4 0 9998
2 27939 97.9663 159.7931 0011656 269.1926 165.1580 14.66649434764584
NOAA-18
1 28654U 05018A 18015.86681421 .00000032 00000-0 42405-4 0 9994
2 28654 099.1638 048.0787 0014249 191.7085 168.3756 14.12363838652185
CO-58
1 28895U 05043F 18015.94980097 .00000120 00000-0 31809-4 0 9993
2 28895 097.8861 173.7719 0016765 186.2992 173.8003 14.63498176651373
Falconsat-3
1 30776U 07006E 18015.79879032 .00002693 00000-0 82062-4 0 9998
2 30776 035.4350 156.3125 0002301 087.5606 272.5383 15.33757051600908
CO-65
1 32785U 08021C 18015.87920196 .00000216 00000-0 29112-4 0 9991
2 32785 097.5536 035.2834 0013158 177.1058 183.0238 14.88045994526521
AAUSAT2
1 32788U 08021F 18016.54897477 .00000500 00000-0 51703-4 0 9991
2 32788 97.5374 49.2575 0013085 132.5269 227.7059 14.94188537527536
DO-64
1 32789U 08021G 18015.94523170 .00000939 00000-0 69099-4 0 9994
2 32789 097.5338 074.4813 0014225 097.6357 262.6486 15.05678988528774
CO-66
1 32791U 08021J 18016.01319907 .00000417 00000-0 48127-4 0 9997
2 32791 97.5465 40.3979 0013958 159.5330 200.6451 14.90445445526847
RS-30
1 32953U 08025A 18016.32614680 .00000017 00000-0 49101-4 0 9990
2 32953 82.5040 107.1312 0019682 178.2660 181.8492 12.43080881437905
PRISM
1 33493U 09002B 18016.35062107 .00000279 00000-0 30494-4 0 9995
2 33493 98.1456 272.4940 0016561 95.7955 264.5110 14.96042148487641
NOAA-19
1 33591U 09005A 18015.88936418 .00000064 00000-0 59908-4 0 9992
2 33591 099.1228 351.0513 0014629 037.6058 322.6133 14.12246272460419
TISAT-1
1 36799U 10035E 18016.42068479 .00000309 00000-0 37612-4 0 9994
2 36799 98.0847 148.8451 0012008 353.1060 6.9990 14.90668638407546
JUGNU
1 37839U 11058B 18015.91804166 .00000313 00000-0 25172-4 0 9993
2 37839 019.9601 240.5765 0018905 008.4559 108.1688 14.12606501323704
SRMSAT
1 37841U 11058D 18015.92346250 .00000307 00000-0 23599-4 0 9996
2 37841 019.9721 286.6082 0011750 257.4808 179.7927 14.10596226323268
AO-71
1 37854U 11061E 18015.92828645 .00000590 00000-0 39158-4 0 9999
2 37854 101.7094 002.9006 0164890 164.8218 195.8027 15.05008586338471
HRBE
1 37855U 11061F 18016.55010744 .00000781 00000-0 48248-4 0 9995
2 37855 101.7226 1.4988 0177907 170.8061 189.6480 15.03985677338857
ALMASAT-1
1 38078U 12006B 18015.87205339 .00030193 39531-5 28752-3 0 9996
2 38078 69.4383 275.6905 0269701 334.6282 149.2287 15.33185922317258
